{"data":{"norad_id":57350,"epoch":"2026-09-20T21:49:26.010912Z","epoch_age_seconds":88957,"freshness":"FRESH","line1":"1 57350U 23099Y   26263.90932883 -.00000329  00000+0 -24568-5 0  9999","line2":"2 57350  43.0011 219.3560 0000831 256.8985 103.1774 15.27574782176041","mean_motion":15.27574782,"eccentricity":8.31e-5,"inclination_deg":43.0011,"raan_deg":219.356,"arg_perigee_deg":256.8985,"mean_anomaly_deg":103.1774,"bstar":-2.4568e-6,"rev_number":17604,"period_min":94.267070716804,"perigee_km":482.49455479031,"apogee_km":483.63488651628,"semimajor_km":6861.2017206533,"source":"CELESTRAK","updated_at":"2026-09-21T09:00:33.600382Z"}}